period_start,C,m1,H,J0,J1,J2,J3,J4,J5,JA,JB,JC,JD,JJ,JK,JN,#
2017-10-04 00:02:08,0.00,0.04,0.00,18.30,21.77,25.02,14.20,45.69,1017.09,2053.67,3519.84,3128.00,3586.09,599.81,605.77,9.59,0000 0000 0000 0000 000000
2017-10-04 00:07:09,0.01,0.04,0.00,18.30,21.77,25.04,14.05,45.60,1017.09,2053.82,3519.45,3128.00,3586.05,599.77,605.69,9.64,0000 0000 0000 0000 000000
2017-10-04 00:12:11,-0.02,0.04,0.00,18.33,21.79,25.02,14.19,45.70,1017.09,2053.61,3519.08,3127.98,3586.00,600.06,605.99,9.69,0000 0000 0000 0000 000000
2017-10-04 00:17:12,-0.01,0.04,0.00,18.32,21.79,25.01,14.21,45.71,1017.09,2053.51,3519.01,3127.90,3586.00,599.85,605.69,9.75,0000 0000 0000 0000 000000
2017-10-04 00:22:14,0.00,0.04,0.00,18.32,21.79,25.04,14.16,45.73,1017.09,2053.30,3519.00,3127.51,3585.98,599.90,605.82,9.80,0000 0000 0000 0000 000000
2017-10-04 00:27:15,0.01,0.04,0.00,18.37,21.81,25.04,14.15,45.70,1017.09,2053.41,3519.00,3127.35,3585.97,599.99,605.80,9.85,0000 0000 0000 0000 000000
2017-10-04 00:32:16,0.01,0.04,0.00,18.36,21.82,25.03,14.19,45.69,1017.09,2053.49,3519.00,3127.16,3585.97,599.86,605.79,9.90,0000 0000 0000 0000 000000
2017-10-04 00:37:17,-0.02,0.04,0.00,18.36,21.83,25.08,14.18,45.73,1017.08,2053.33,3519.00,3127.05,3585.73,600.25,605.99,9.95,0000 0000 0000 0000 000000
2017-10-04 00:42:19,-0.00,0.04,0.00,18.42,21.84,25.03,14.16,45.64,1017.02,2053.16,3518.88,3127.01,3585.16,599.95,605.60,10.00,0000 0000 0000 0000 000000
2017-10-04 00:47:20,-0.00,0.04,0.00,18.39,21.85,25.03,14.09,45.67,1016.76,2053.06,3518.37,3127.00,3585.03,599.83,605.39,10.05,0000 0000 0000 0000 000000
2017-10-04 00:52:22,0.00,0.04,0.00,18.43,21.87,25.09,14.20,45.71,1016.66,2053.05,3518.07,3127.00,3585.00,600.09,605.44,10.10,0000 0000 0000 0000 000000
2017-10-04 00:57:23,-0.00,0.04,0.00,18.44,21.87,25.10,14.17,45.64,1016.63,2053.05,3518.01,3126.98,3585.00,600.01,605.44,10.15,0000 0000 0000 0000 000000
2017-10-04 01:02:24,-0.00,0.04,0.00,18.48,21.88,25.14,14.11,45.68,1016.63,2053.03,3518.00,3126.92,3584.99,599.69,604.95,10.20,0000 0000 0000 0000 000000
2017-10-04 01:07:25,0.01,0.04,0.00,18.46,21.89,25.11,14.16,45.49,1016.63,2053.01,3517.99,3126.56,3584.89,600.00,605.25,10.25,0000 0000 0000 0000 000000
2017-10-04 01:12:26,0.00,0.04,0.00,18.49,21.91,25.11,14.11,45.55,1016.62,2053.03,3517.97,3126.49,3584.76,599.73,604.98,10.30,0000 0000 0000 0000 000000
2017-10-04 01:17:27,0.02,0.04,0.00,18.56,21.92,25.09,14.17,45.56,1016.62,2053.01,3517.80,3126.10,3584.25,600.27,605.27,10.35,0000 0000 0000 0000 000000
2017-10-04 01:22:29,0.01,0.04,0.00,18.54,21.93,25.06,14.12,45.58,1016.62,2053.00,3517.16,3126.01,3584.02,599.95,605.03,10.40,0000 0000 0000 0000 000000
2017-10-04 01:27:30,0.00,0.04,0.00,18.62,21.94,25.06,14.18,45.65,1016.62,2053.00,3517.03,3126.00,3584.00,600.00,605.02,10.45,0000 0000 0000 0000 000000
2017-10-04 01:32:31,0.00,0.04,0.00,18.64,21.96,25.04,14.14,45.58,1016.62,2053.00,3517.00,3126.00,3584.00,599.79,604.56,10.50,0000 0000 0000 0000 000000
2017-10-04 01:37:33,0.00,0.04,0.00,18.68,21.98,25.02,14.16,45.64,1016.62,2053.00,3516.99,3125.96,3583.98,599.93,604.83,10.55,0000 0000 0000 0000 000000
2017-10-04 01:42:34,0.02,0.04,0.00,18.68,21.99,24.97,14.09,45.68,1016.62,2052.99,3516.77,3125.64,3583.62,599.94,604.81,10.60,0000 0000 0000 0000 000000
2017-10-04 01:47:35,0.01,0.04,0.00,18.65,22.02,25.01,14.09,45.55,1016.62,2052.99,3516.46,3125.21,3583.15,599.77,604.64,10.65,0000 0000 0000 0000 000000
2017-10-04 01:52:36,0.00,0.04,0.00,18.74,22.04,25.08,14.13,45.53,1016.62,2052.98,3516.08,3125.02,3583.02,600.29,605.06,10.70,0000 0000 0000 0000 000000
2017-10-04 01:57:37,0.00,0.04,0.00,18.74,22.06,25.01,14.11,45.59,1016.62,2052.99,3516.01,3125.02,3583.00,600.01,604.71,10.75,0000 0000 0000 0000 000000
2017-10-04 02:02:39,-0.00,0.04,0.00,18.78,22.08,25.05,14.11,45.63,1016.61,2052.95,3516.00,3124.99,3582.96,599.91,604.54,10.80,0000 0000 0000 0000 000000
2017-10-04 02:07:40,0.02,0.04,0.00,18.76,22.10,25.10,14.10,45.55,1016.60,2052.86,3515.62,3124.73,3582.52,600.01,604.73,10.85,0000 0000 0000 0000 000000
2017-10-04 02:12:41,-0.02,0.04,0.00,18.83,22.13,25.13,14.04,45.42,1016.60,2052.45,3515.10,3124.19,3582.05,600.06,604.63,10.90,0000 0000 0000 0000 000000
2017-10-04 02:17:42,-0.02,0.04,0.00,18.86,22.15,25.10,14.08,45.45,1016.61,2052.10,3515.01,3124.02,3582.00,600.03,604.34,10.95,0000 0000 0000 0000 000000
2017-10-04 02:22:43,-0.00,0.04,0.00,18.85,22.18,25.14,14.15,45.47,1016.61,2052.05,3515.00,3124.00,3581.97,599.99,604.61,11.00,0000 0000 0000 0000 000000
2017-10-04 02:27:45,0.00,0.04,0.00,18.92,22.20,25.16,14.04,45.49,1016.56,2052.01,3514.95,3123.98,3581.61,599.64,603.96,11.05,0000 0000 0000 0000 000000
2017-10-04 02:32:46,0.01,0.04,0.00,18.92,22.22,25.22,14.09,45.52,1016.53,2052.00,3514.44,3123.96,3581.13,599.95,604.26,11.10,0000 0000 0000 0000 000000
2017-10-04 02:37:47,0.02,0.04,0.00,18.99,22.24,25.26,14.14,45.49,1016.55,2052.00,3514.03,3123.38,3581.00,599.89,604.12,11.15,0000 0000 0000 0000 000000
2017-10-04 02:42:48,0.00,0.04,0.00,18.95,22.27,25.23,14.02,45.58,1016.56,2052.00,3514.00,3123.02,3580.98,599.73,603.91,11.20,0000 0000 0000 0000 000000
2017-10-04 02:47:50,0.00,0.04,0.00,19.00,22.29,25.24,14.09,45.48,1016.51,2051.99,3513.98,3123.00,3580.88,599.97,604.12,11.25,0000 0000 0000 0000 000000
2017-10-04 02:52:51,0.01,0.04,0.00,18.98,22.32,25.27,14.13,45.42,1016.51,2051.98,3513.88,3123.00,3580.27,600.29,604.50,11.30,0000 0000 0000 0000 000000
2017-10-04 02:57:52,-0.01,0.05,0.00,19.07,22.34,25.35,14.11,45.38,1016.50,2051.78,3513.24,3122.96,3580.01,599.86,603.85,11.35,0000 0000 0000 0000 000000
2017-10-04 03:02:53,-0.01,0.04,0.00,19.07,22.36,25.31,14.10,45.30,1016.37,2051.40,3513.02,3122.48,3579.99,600.00,603.90,11.40,0000 0000 0000 0000 000000
2017-10-04 03:07:54,-0.01,0.04,0.00,19.06,22.38,25.36,14.09,45.46,1016.42,2051.15,3513.00,3122.08,3579.82,599.81,603.73,11.45,0000 0000 0000 0000 000000
2017-10-04 03:12:55,0.00,0.04,0.00,19.10,22.41,25.40,14.10,45.52,1016.31,2051.04,3512.91,3122.01,3579.23,599.56,603.24,11.50,0000 0000 0000 0000 000000
2017-10-04 03:17:57,0.01,0.04,0.00,19.07,22.43,25.45,14.11,45.52,1016.26,2051.00,3512.22,3121.98,3579.01,600.22,604.03,11.55,0000 0000 0000 0000 000000
2017-10-04 03:22:58,0.01,0.04,0.00,19.14,22.45,25.46,14.11,45.35,1016.20,2051.00,3511.98,3121.65,3578.89,600.01,603.58,11.60,0000 0000 0000 0000 000000
2017-10-04 03:27:59,0.03,0.05,0.00,19.12,22.48,25.46,14.12,45.47,1016.29,2051.00,3511.39,3121.05,3578.16,600.14,603.86,11.65,0000 0000 0000 0000 000000
2017-10-04 03:33:00,0.00,0.05,0.00,19.17,22.50,25.49,14.09,45.41,1016.27,2050.98,3510.99,3120.99,3578.00,599.91,603.52,11.70,0000 0000 0000 0000 000000
2017-10-04 03:38:02,0.01,0.05,0.00,19.16,22.52,25.54,14.06,45.45,1016.22,2050.98,3510.76,3120.94,3577.92,599.79,603.30,11.75,0000 0000 0000 0000 000000
2017-10-04 03:43:03,0.03,0.05,0.00,19.26,22.54,25.58,14.06,45.45,1016.17,2050.97,3510.15,3120.44,3577.41,600.10,603.45,11.80,0000 0000 0000 0000 000000
2017-10-04 03:48:05,0.01,0.05,0.00,19.25,22.57,25.56,14.07,45.62,1016.17,2050.95,3510.00,3120.04,3577.03,599.86,603.27,11.85,0000 0000 0000 0000 000000
2017-10-04 03:53:06,-0.02,0.05,0.00,19.30,22.59,25.58,14.01,45.44,1016.19,2050.76,3509.83,3120.00,3576.99,599.94,603.27,11.90,0000 0000 0000 0000 000000
2017-10-04 03:58:08,-0.03,0.05,0.00,19.27,22.62,25.64,14.01,45.52,1016.16,2050.31,3509.09,3119.96,3576.70,599.99,603.40,11.95,0000 0000 0000 0000 000000
2017-10-04 04:03:09,0.01,0.05,0.00,19.33,22.64,25.67,14.05,45.49,1016.17,2050.08,3508.99,3119.37,3576.05,599.90,603.12,12.00,0000 0000 0000 0000 000000
2017-10-04 04:08:10,0.01,0.05,0.00,19.33,22.67,25.69,14.16,45.52,1016.15,2050.03,3508.48,3119.02,3576.00,600.25,603.53,12.06,0000 0000 0000 0000 000000
2017-10-04 04:13:11,0.01,0.05,0.00,19.39,22.70,25.72,14.07,45.52,1016.15,2050.00,3507.98,3118.95,3575.56,599.98,603.01,12.11,0000 0000 0000 0000 000000
2017-10-04 04:18:12,0.04,0.05,0.00,19.38,22.73,25.71,14.04,45.48,1016.14,2050.00,3507.15,3118.22,3575.00,600.10,603.24,12.16,0000 0000 0000 0000 000000
2017-10-04 04:23:14,0.02,0.05,0.00,19.39,22.75,25.79,14.00,45.48,1016.14,2050.00,3506.52,3117.97,3574.27,599.64,602.68,12.21,0000 0000 0000 0000 000000
2017-10-04 04:28:15,0.02,0.05,0.00,19.44,22.78,25.87,14.04,45.42,1016.13,2049.99,3505.99,3117.32,3573.99,600.18,603.18,12.26,0000 0000 0000 0000 000000
2017-10-04 04:33:16,0.02,0.05,0.00,19.42,22.81,25.84,14.13,45.58,1016.13,2049.97,3505.30,3117.00,3573.39,600.08,603.17,12.31,0000 0000 0000 0000 000000
2017-10-04 04:38:18,-0.01,0.06,0.00,19.46,22.83,25.91,14.09,45.51,1016.14,2049.90,3504.99,3116.99,3573.02,599.82,602.84,12.36,0000 0000 0000 0000 000000
2017-10-04 04:43:19,0.00,0.05,0.00,19.48,22.86,25.96,14.07,45.58,1016.13,2049.61,3504.54,3116.41,3572.95,600.01,602.94,12.41,0000 0000 0000 0000 000000
2017-10-04 04:48:21,-0.01,0.05,0.00,19.54,22.88,25.95,14.13,45.55,1016.13,2049.23,3504.02,3116.02,3572.32,600.45,603.21,12.46,0000 0000 0000 0000 000000
2017-10-04 04:53:22,-0.00,0.05,0.00,19.49,22.90,25.93,14.12,45.50,1016.13,2049.07,3503.63,3115.98,3572.00,599.67,602.63,12.51,0000 0000 0000 0000 000000
2017-10-04 04:58:23,0.01,0.06,0.00,19.54,22.93,26.03,14.10,45.64,1016.13,2049.02,3503.03,3115.65,3571.93,600.02,602.77,12.56,0000 0000 0000 0000 000000
2017-10-04 05:03:24,0.02,0.06,0.00,19.50,22.95,26.06,14.04,45.55,1016.13,2049.01,3502.95,3115.08,3571.20,599.77,602.59,12.61,0000 0000 0000 0000 000000
2017-10-04 05:08:25,0.01,0.06,0.00,19.53,22.97,26.16,14.13,45.57,1016.13,2049.00,3502.29,3115.00,3571.00,600.30,603.08,12.66,0000 0000 0000 0000 000000
2017-10-04 05:13:27,0.00,0.06,0.00,19.57,22.99,26.18,14.04,45.58,1016.13,2049.00,3502.04,3114.99,3570.99,600.03,602.79,12.71,0000 0000 0000 0000 000000
2017-10-04 05:18:28,0.00,0.06,0.00,19.55,23.01,26.14,14.07,45.57,1016.12,2048.98,3502.00,3114.86,3570.67,599.86,602.49,12.76,0000 0000 0000 0000 000000
2017-10-04 05:23:29,0.02,0.06,0.00,19.58,23.03,26.17,14.07,45.65,1016.13,2048.97,3501.88,3114.34,3570.06,599.67,602.36,12.81,0000 0000 0000 0000 000000
2017-10-04 05:28:31,0.01,0.06,0.00,19.55,23.04,26.24,14.13,45.65,1016.12,2048.96,3501.16,3114.03,3570.00,599.92,602.64,12.86,0000 0000 0000 0000 000000
2017-10-04 05:33:32,-0.01,0.06,0.00,19.58,23.06,26.24,14.13,45.58,1016.10,2048.92,3501.00,3114.00,3569.98,600.08,602.76,12.91,0000 0000 0000 0000 000000
2017-10-04 05:38:33,-0.02,0.06,0.00,19.56,23.07,26.31,14.16,45.66,1016.10,2048.61,3500.97,3113.98,3569.68,600.50,603.18,12.96,0000 0000 0000 0000 000000
2017-10-04 05:43:35,-0.00,0.06,0.00,19.62,23.09,26.25,14.10,45.54,1016.11,2048.40,3500.52,3113.94,3569.19,600.09,602.69,13.01,0000 0000 0000 0000 000000
2017-10-04 05:48:36,0.01,0.06,0.00,19.58,23.10,26.29,14.12,45.59,1016.09,2048.08,3500.04,3113.44,3569.00,600.00,602.64,13.06,0000 0000 0000 0000 000000
2017-10-04 05:53:37,0.01,0.06,0.00,19.61,23.11,26.34,14.08,45.59,1016.11,2048.05,3499.98,3113.05,3568.98,599.93,602.55,13.11,0000 0000 0000 0000 000000
2017-10-04 05:58:38,0.02,0.06,0.00,19.56,23.12,26.34,14.08,45.49,1016.12,2048.04,3499.44,3113.00,3568.71,600.14,602.78,13.16,0000 0000 0000 0000 000000
2017-10-04 06:03:39,0.00,0.06,0.00,19.58,23.13,26.36,14.01,45.48,1016.11,2048.02,3499.01,3112.99,3568.12,599.85,602.47,13.21,0000 0000 0000 0000 000000
2017-10-04 06:08:41,0.00,0.06,0.00,19.57,23.14,26.38,14.09,45.56,1016.07,2048.02,3498.97,3112.96,3568.00,600.00,602.64,13.26,0000 0000 0000 0000 000000
2017-10-04 06:13:42,0.02,0.06,0.00,19.61,23.14,26.41,14.20,45.58,1016.03,2048.01,3498.43,3112.60,3568.00,600.24,602.69,13.31,0000 0000 0000 0000 000000
2017-10-04 06:18:43,0.01,0.06,0.00,19.57,23.15,26.37,14.06,45.56,1015.99,2048.01,3498.01,3112.06,3567.99,599.47,602.09,13.36,0000 0000 0000 0000 000000
2017-10-04 06:23:45,0.00,0.06,0.00,19.60,23.17,26.41,14.03,45.54,1015.93,2048.00,3497.95,3112.01,3567.69,599.94,602.55,13.41,0000 0000 0000 0000 000000
2017-10-04 06:28:46,0.01,0.06,0.00,19.56,23.17,26.41,14.01,45.44,1015.82,2048.01,3497.62,3111.99,3567.14,599.85,602.47,13.46,0000 0000 0000 0000 000000
2017-10-04 06:33:47,0.00,0.06,0.00,19.60,23.18,26.44,13.99,45.53,1015.86,2048.00,3497.05,3111.98,3567.01,599.87,602.47,13.51,0000 0000 0000 0000 000000
2017-10-04 06:38:49,-0.00,0.06,0.00,19.57,23.19,26.47,14.04,45.52,1015.77,2047.99,3497.00,3111.95,3567.00,600.29,602.81,13.56,0000 0000 0000 0000 000000
2017-10-04 06:43:50,0.02,0.06,0.00,19.61,23.19,26.46,14.12,45.56,1015.72,2047.98,3496.92,3111.37,3566.94,599.78,602.24,13.61,0000 0000 0000 0000 000000
2017-10-04 06:48:51,0.01,0.07,0.00,19.58,23.20,26.42,14.11,45.61,1015.75,2047.98,3496.51,3111.06,3566.72,600.11,602.54,13.66,0000 0000 0000 0000 000000
2017-10-04 06:53:52,0.01,0.07,0.00,19.59,23.21,26.44,14.02,45.54,1015.76,2047.97,3496.09,3111.01,3566.22,599.92,602.33,13.71,0000 0000 0000 0000 000000
2017-10-04 06:58:54,0.00,0.07,0.00,19.57,23.22,26.48,14.12,45.51,1015.76,2047.98,3496.02,3111.01,3566.06,599.86,602.43,13.76,0000 0000 0000 0000 000000
2017-10-04 07:03:55,0.00,0.07,0.00,19.59,23.22,26.48,14.06,45.55,1015.76,2047.98,3496.00,3111.00,3566.01,599.67,602.18,13.81,0000 0000 0000 0000 000000
2017-10-04 07:08:56,-0.00,0.07,0.00,19.55,23.22,26.46,14.11,45.48,1015.87,2047.97,3495.99,3110.99,3565.99,600.07,602.74,13.86,0000 0000 0000 0000 000000
2017-10-04 07:13:57,0.00,0.07,0.00,19.59,23.22,26.49,14.10,45.48,1015.84,2047.94,3495.88,3110.98,3565.98,599.94,602.47,13.91,0000 0000 0000 0000 000000
2017-10-04 07:18:58,0.00,0.07,0.00,19.56,23.22,26.50,14.00,45.48,1015.78,2047.92,3495.27,3110.94,3565.96,599.69,602.34,13.96,0000 0000 0000 0000 000000
2017-10-04 07:24:00,0.01,0.07,0.00,19.58,23.23,26.49,14.14,45.44,1015.72,2047.94,3495.06,3110.84,3565.87,600.06,602.50,14.01,0000 0000 0000 0000 000000
2017-10-04 07:29:01,0.00,0.07,0.00,19.56,23.23,26.46,14.14,45.48,1015.67,2047.95,3495.03,3110.85,3565.84,600.03,602.47,14.06,0000 0000 0000 0000 000000
2017-10-04 07:34:02,0.02,0.07,0.00,19.57,23.23,26.51,14.01,45.45,1015.67,2047.95,3495.00,3110.52,3565.51,599.96,602.53,14.11,0000 0000 0000 0000 000000
2017-10-04 07:39:04,0.01,0.07,0.00,19.54,23.23,26.50,14.07,45.48,1015.66,2047.95,3495.00,3110.13,3565.08,599.80,602.27,14.16,0000 0000 0000 0000 000000
2017-10-04 07:44:05,0.00,0.07,0.00,19.57,23.23,26.47,14.05,45.40,1015.65,2047.94,3494.94,3110.02,3565.01,599.89,602.32,14.21,0000 0000 0000 0000 000000
2017-10-04 07:49:06,0.00,0.07,0.00,19.54,23.23,26.48,14.12,45.28,1015.65,2047.91,3494.52,3110.01,3565.00,600.33,602.80,14.26,0000 0000 0000 0000 000000
2017-10-04 07:54:08,0.01,0.07,0.00,19.53,23.23,26.49,14.12,45.41,1015.64,2047.89,3494.12,3110.00,3565.00,600.28,602.75,14.32,0000 0000 0000 0000 000000
2017-10-04 07:59:09,-0.00,0.07,0.00,19.53,23.23,26.50,14.10,45.43,1015.65,2047.86,3494.03,3110.00,3565.00,600.03,602.62,14.37,0000 0000 0000 0000 000000
2017-10-04 08:04:11,-0.00,0.07,0.00,19.50,23.22,26.49,14.08,45.42,1015.65,2047.83,3494.00,3109.99,3564.97,599.88,602.47,14.42,0000 0000 0000 0000 000000
2017-10-04 08:09:12,0.00,0.07,0.00,19.55,23.22,26.49,14.13,45.42,1015.65,2047.86,3494.00,3109.99,3564.92,599.99,602.49,14.47,0000 0000 0000 0000 000000
2017-10-04 08:14:14,-0.00,0.07,0.00,19.53,23.22,26.47,14.07,45.37,1015.66,2047.91,3493.99,3109.98,3564.83,599.74,602.26,14.52,0000 0000 0000 0000 000000
2017-10-04 08:19:15,0.00,0.07,0.00,19.57,23.22,26.48,14.04,45.43,1015.66,2047.92,3493.97,3109.97,3564.50,599.69,602.13,14.57,0000 0000 0000 0000 000000
2017-10-04 08:24:16,0.00,0.07,0.00,19.51,23.22,26.48,14.10,45.42,1015.65,2047.91,3493.96,3109.96,3564.33,600.09,602.65,14.62,0000 0000 0000 0000 000000
2017-10-04 08:29:17,0.01,0.07,0.00,19.51,23.22,26.47,14.14,45.43,1015.65,2047.83,3493.63,3109.88,3564.06,600.16,602.59,14.67,0000 0000 0000 0000 000000
2017-10-04 08:34:18,0.01,0.07,0.00,19.51,23.22,26.48,14.07,45.51,1015.65,2047.82,3493.17,3109.66,3564.02,599.92,602.60,14.72,0000 0000 0000 0000 000000
2017-10-04 08:39:20,0.01,0.07,0.00,19.51,23.22,26.48,14.08,45.48,1015.64,2047.80,3493.02,3109.31,3564.00,599.96,602.52,14.77,0000 0000 0000 0000 000000
2017-10-04 08:44:21,0.01,0.07,0.00,19.52,23.22,26.47,14.13,45.42,1015.64,2047.88,3493.00,3109.05,3564.00,600.17,602.71,14.82,0000 0000 0000 0000 000000
2017-10-04 08:49:22,-0.00,0.07,0.00,19.50,23.22,26.48,14.04,45.44,1015.64,2047.86,3492.99,3109.01,3563.97,600.05,602.40,14.87,0000 0000 0000 0000 000000
2017-10-04 08:54:23,-0.01,0.07,0.00,19.50,23.22,26.46,14.14,45.52,1015.64,2047.77,3492.97,3109.01,3563.97,599.97,602.56,14.92,0000 0000 0000 0000 000000
2017-10-04 08:59:25,0.01,0.07,0.00,19.47,23.21,26.48,14.07,45.52,1015.64,2047.85,3492.93,3109.00,3563.98,599.72,602.38,14.97,0000 0000 0000 0000 000000
2017-10-04 09:04:26,0.01,0.07,0.00,19.50,23.20,26.46,14.09,45.42,1015.64,2047.94,3492.68,3109.00,3563.96,600.18,602.76,15.02,0000 0000 0000 0000 000000
2017-10-04 09:09:27,0.00,0.07,0.00,19.51,23.19,26.45,14.11,45.46,1015.64,2047.94,3492.16,3109.00,3563.74,600.29,602.81,15.07,0000 0000 0000 0000 000000
2017-10-04 09:14:28,0.00,0.07,0.00,19.49,23.19,26.46,14.13,45.46,1015.64,2047.95,3492.05,3109.00,3563.60,599.95,602.61,15.12,0000 0000 0000 0000 000000
2017-10-04 09:19:30,0.00,0.07,0.00,19.47,23.19,26.48,14.01,45.36,1015.64,2047.96,3492.00,3109.00,3563.21,599.67,602.32,15.17,0000 0000 0000 0000 000000
2017-10-04 09:24:31,0.00,0.07,0.00,19.47,23.19,26.45,14.09,45.38,1015.64,2047.95,3492.00,3108.99,3563.14,599.94,602.54,15.22,0000 0000 0000 0000 000000
2017-10-04 09:29:32,0.00,0.07,0.00,19.45,23.17,26.47,14.18,45.59,1015.64,2047.98,3492.01,3108.99,3563.18,600.37,603.11,15.27,0000 0000 0000 0000 000000
2017-10-04 09:34:33,0.00,0.07,0.00,19.51,23.17,26.43,14.08,45.57,1015.64,2047.97,3492.00,3108.99,3563.07,600.01,602.51,15.32,0000 0000 0000 0000 000000
2017-10-04 09:39:34,0.00,0.07,0.00,19.47,23.17,26.42,13.98,45.53,1015.64,2047.98,3491.99,3108.99,3563.03,599.61,602.20,15.37,0000 0000 0000 0000 000000
2017-10-04 09:44:36,-0.00,0.07,0.00,19.47,23.17,26.41,14.06,45.45,1015.64,2047.97,3491.97,3108.99,3563.01,599.85,602.42,15.42,0000 0000 0000 0000 000000
2017-10-04 09:49:37,-0.00,0.07,0.00,19.42,23.15,26.40,14.10,45.60,1015.64,2047.98,3491.95,3108.98,3563.01,599.83,602.58,15.47,0000 0000 0000 0000 000000
2017-10-04 09:54:38,0.01,0.07,0.00,19.46,23.15,26.44,14.15,45.59,1015.64,2047.98,3491.81,3108.97,3563.01,600.14,602.81,15.52,0000 0000 0000 0000 000000
2017-10-04 09:59:39,0.00,0.07,0.00,19.45,23.14,26.41,14.18,45.53,1015.64,2047.99,3491.66,3108.97,3563.00,600.15,602.90,15.57,0000 0000 0000 0000 000000
2017-10-04 10:04:41,0.01,0.07,0.00,19.47,23.14,26.43,14.06,45.51,1015.64,2047.99,3491.23,3108.97,3563.00,600.13,602.78,15.62,0000 0000 0000 0000 000000
2017-10-04 10:09:42,-0.00,0.08,0.00,19.44,23.14,26.40,14.09,45.40,1015.64,2047.99,3491.22,3108.98,3563.00,600.23,602.76,15.67,0000 0000 0000 0000 000000
2017-10-04 10:14:43,0.00,0.07,0.00,19.43,23.14,26.39,14.20,45.53,1015.64,2047.99,3491.16,3108.97,3563.00,600.20,602.96,15.72,0000 0000 0000 0000 000000
2017-10-04 10:19:45,0.00,0.08,0.00,19.41,23.12,26.38,14.16,45.64,1015.64,2047.99,3491.04,3108.97,3563.00,600.08,602.84,15.77,0000 0000 0000 0000 000000
2017-10-04 10:24:46,0.00,0.08,0.00,19.42,23.12,26.42,14.05,45.59,1015.64,2048.00,3491.07,3108.96,3562.99,599.84,602.59,15.82,0000 0000 0000 0000 000000
2017-10-04 10:29:47,0.00,0.08,0.00,19.41,23.12,26.41,14.08,45.67,1015.64,2048.00,3491.04,3108.96,3562.99,599.93,602.75,15.87,0000 0000 0000 0000 000000
2017-10-04 10:34:48,0.00,0.08,0.00,19.38,23.12,26.38,14.08,45.52,1015.64,2047.99,3491.00,3108.85,3562.98,599.65,602.60,15.92,0000 0000 0000 0000 000000
2017-10-04 10:39:49,0.00,0.08,0.00,19.40,23.12,26.38,14.08,45.58,1015.63,2047.99,3491.00,3108.67,3562.98,599.94,602.72,15.97,0000 0000 0000 0000 000000
2017-10-04 10:44:51,-0.00,0.08,0.00,19.33,23.10,26.37,14.19,45.67,1015.55,2047.99,3490.98,3108.66,3562.97,600.51,603.41,16.02,0000 0000 0000 0000 000000
2017-10-04 10:49:52,0.00,0.08,0.00,19.38,23.10,26.37,14.11,45.62,1015.49,2047.99,3490.98,3108.56,3562.92,600.24,602.94,16.07,0000 0000 0000 0000 000000
2017-10-04 10:54:53,0.01,0.08,0.00,19.36,23.09,26.36,14.12,45.60,1015.51,2048.01,3490.95,3108.45,3562.81,600.21,602.94,16.12,0000 0000 0000 0000 000000
2017-10-04 10:59:55,0.01,0.08,0.00,19.37,23.09,26.35,14.05,45.60,1015.55,2048.01,3490.74,3108.18,3562.42,599.88,602.67,16.17,0000 0000 0000 0000 000000
2017-10-04 11:04:56,-0.00,0.08,0.00,19.32,23.07,26.37,14.07,45.60,1015.48,2048.00,3490.67,3108.16,3562.34,599.87,602.82,16.22,0000 0000 0000 0000 000000
2017-10-04 11:09:58,0.00,0.08,0.00,19.32,23.07,26.35,14.09,45.65,1015.40,2048.00,3490.36,3108.11,3562.18,599.88,602.65,16.27,0000 0000 0000 0000 000000
2017-10-04 11:14:59,-0.01,0.08,0.00,19.35,23.07,26.32,14.11,45.65,1015.29,2048.01,3490.52,3108.27,3562.32,600.07,602.75,16.32,0000 0000 0000 0000 000000
2017-10-04 11:20:00,0.01,0.08,0.00,19.33,23.05,26.32,14.09,45.71,1015.26,2048.01,3490.13,3108.13,3562.21,600.01,602.77,16.37,0000 0000 0000 0000 000000
2017-10-04 11:25:02,-0.00,0.08,0.00,19.33,23.04,26.30,14.15,45.58,1015.25,2048.04,3490.01,3108.13,3562.23,600.12,602.82,16.42,0000 0000 0000 0000 000000
2017-10-04 11:30:03,0.01,0.08,0.00,19.26,23.04,26.29,14.08,45.53,1015.20,2048.08,3490.01,3108.07,3562.13,599.99,602.71,16.47,0000 0000 0000 0000 000000
2017-10-04 11:35:05,-0.01,0.08,0.00,19.29,23.03,26.30,14.16,45.51,1015.17,2048.04,3490.00,3108.05,3562.09,600.18,602.94,16.52,0000 0000 0000 0000 000000
2017-10-04 11:40:06,0.01,0.08,0.00,19.26,23.02,26.31,14.14,45.49,1015.16,2048.10,3490.00,3108.04,3562.08,600.13,602.79,16.57,0000 0000 0000 0000 000000
2017-10-04 11:45:07,0.01,0.08,0.00,19.29,23.02,26.27,14.06,45.42,1015.15,2048.27,3490.00,3108.03,3562.09,599.85,602.65,16.62,0000 0000 0000 0000 000000
2017-10-04 11:50:08,0.02,0.08,0.00,19.23,23.02,26.27,14.12,45.59,1015.15,2048.44,3489.99,3108.04,3562.06,600.21,603.04,16.67,0000 0000 0000 0000 000000
2017-10-04 11:55:10,0.01,0.08,0.00,19.23,23.00,26.30,14.16,45.61,1015.15,2048.62,3489.98,3108.04,3562.05,600.25,603.10,16.72,0000 0000 0000 0000 000000
2017-10-04 12:00:11,0.02,0.08,0.00,19.20,22.99,26.29,13.99,45.48,1015.15,2048.90,3489.98,3108.05,3562.09,599.70,602.46,16.77,0000 0000 0000 0000 000000
2017-10-04 12:05:12,0.00,0.08,0.00,19.22,22.99,26.23,14.07,45.50,1015.15,2048.92,3489.96,3108.02,3562.03,599.98,602.76,16.82,0000 0000 0000 0000 000000
2017-10-04 12:10:13,0.00,0.08,0.00,19.18,22.98,26.23,14.10,45.57,1015.15,2048.95,3489.81,3108.00,3562.02,600.15,603.03,16.87,0000 0000 0000 0000 000000
2017-10-04 12:15:14,0.00,0.08,0.00,19.20,22.97,26.24,14.08,45.63,1015.15,2048.97,3489.62,3108.01,3562.01,600.08,602.99,16.92,0000 0000 0000 0000 000000
2017-10-04 12:20:16,-0.00,0.08,0.00,19.15,22.97,26.23,14.12,45.52,1015.15,2048.96,3489.42,3108.00,3562.00,600.13,603.23,16.98,0000 0000 0000 0000 000000
2017-10-04 12:25:17,-0.00,0.08,0.00,19.19,22.96,26.21,14.04,45.55,1015.15,2048.97,3489.40,3108.01,3562.00,599.76,602.71,17.03,0000 0000 0000 0000 000000
2017-10-04 12:30:18,0.00,0.08,0.00,19.16,22.95,26.21,14.12,45.66,1015.15,2048.97,3489.31,3108.01,3562.00,600.12,603.16,17.08,0000 0000 0000 0000 000000
2017-10-04 12:35:20,-0.01,0.08,0.00,19.15,22.94,26.20,14.14,45.60,1015.15,2048.96,3489.41,3108.02,3562.00,599.94,603.03,17.13,0000 0000 0000 0000 000000
2017-10-04 12:40:21,0.00,0.08,0.00,19.14,22.94,26.20,14.01,45.59,1015.14,2048.96,3489.16,3108.01,3562.00,599.75,602.85,17.18,0000 0000 0000 0000 000000
2017-10-04 12:45:23,0.00,0.08,0.00,19.12,22.92,26.20,14.11,45.72,1015.15,2048.98,3489.05,3108.01,3562.00,599.67,602.76,17.23,0000 0000 0000 0000 000000
2017-10-04 12:50:24,0.00,0.08,0.00,19.14,22.92,26.18,14.16,45.76,1015.14,2048.98,3489.02,3108.00,3562.00,600.24,603.27,17.28,0000 0000 0000 0000 000000
2017-10-04 12:55:25,0.00,0.08,0.00,19.10,22.91,26.17,14.12,45.67,1015.13,2048.99,3489.00,3108.00,3562.00,599.93,603.03,17.33,0000 0000 0000 0000 000000